SCP
0 0 0 0 0 0 0 0 0 0 0 0 0 0 0 0 0 0 0 0 0 0 0 0 0 0 0 0 0 0 0 0 0 0 0 0 0 0 0 0 0 0 0
0 0 0 0 0 0 0 0 0 0 0 0 0 0 0 0 0 0 0 0 0 0 0 0 0 0 0 0 0 0 0 0 0 0 0 0 0 0 0 0 0 0 0
0 0 0 0 0 0 0 0 0 0 0 0 0 0 0 0 0 0 0 0 0 0 0 0 0 0 0 0 0 0 0 0 0 0 0 0 0 0 0 0 0 0 0
0 0 0 0 0 0 0 0 0 0 0 0 0 0 0 0 0 0 0 0 0 0 0 0 0 0 0 0 0 0 0 0 0 0 0 0 0 0 0 0 0 0 0
0 0 0 0 0 0 0 0 0 0 0 0 0 0 0 0 0 0 0 0 0 0 0 0 0 0 0 0 0 0 0 0 0 0 0 0 0 0 0 0 0 0 0
0 0 0 0 0 0 0 0 0 0 0 0 0 0 0 0 0 0 0 0 0 0 0 0 0 0 0 0 0 0 0 0 0 0 0 0 0 0 0 0 0 0 0
0 0 0 0 0 0 0 0 0 0 0 0 0 0 0 0 0 0 0 0 0 0 0 0 0 0 0 0 0 0 0 0 0 0 0 0 0 0 0 0 0 0 0
0 0 0 0 0 0 0 0 0 0 0 0 0 0 0 0 0 0 1 0 0 0 0 0 0 0 0 0 0 0 0 0 0 0 0 0 0 0 0 0 0 0 0
0 0 0 0 0 0 0 0 0 0 0 0 0 0 0 0 0 0 0 0 0 0 0 0 0 0 1 1 0 0 0 0 0 0 0 0 0 0 0 0 0 0 0
0 0 0 0 0 0 0 0 0 0 0 0 0 0 0 0 0 0 0 0 0 0 0 0 0 0 1 1 1 0 0 0 0 0 0 0 0 0 0 0 0 0 0
0 0 0 0 0 0 0 0 0 0 0 0 0 0 0 0 0 0 0 0 0 0 0 0 0 0 0 0 0 0 0 0 0 0 0 0 0 0 0 0 0 0 0
0 0 0 0 0 0 0 0 0 0 0 0 0 0 0 0 0 0 0 0 0 0 0 0 0 0 0 0 0 0 0 0 0 0 0 0 0 0 0 0 0 0 0
0 0 0 0 0 0 0 0 0 0 0 0 0 0 0 0 0 0 0 0 0 0 0 0 0 0 0 0 0 0 0 0 0 0 0 0 0 0 0 0 0 0 0
0 0 0 0 0 0 0 0 0 0 0 0 0 0 0 0 0 0 0 0 0 0 0 0 0 0 0 0 0 0 0 0 0 0 0 0 0 0 0 0 0 0 0
0 0 0 0 0 0 0 0 0 0 0 0 0 0 0 0 0 0 0 0 0 0 0 0 0 0 0 0 0 0 0 0 0 0 0 0 0 0 0 0 0 0 0
0 0 0 0 0 0 0 0 0 0 0 0 0 0 0 0 0 0 0 0 0 0 0 0 0 0 0 0 0 0 0 0 0 0 0 0 0 0 0 0 0 0 0
0 0 0 0 0 0 0 0 0 0 0 0 0 0 0 0 0 0 0 0 0 0 0 0 0 0 0 0 0 0 0 0 0 0 0 0 0 0 0 0 0 0 0
0 0 0 0 0 0 0 0 0 0 0 0 0 0 0 0 0 0 0 0 0 0 0 0 0 0 0 0 0 0 0 0 0 0 0 0 0 0 0 0 0 0 0
0 0 0 0 0 0 0 0 0 0 0 0 0 0 0 0 0 0 0 0 0 0 0 0 0 0 0 0 0 0 0 0 0 0 0 0 0 0 0 0 0 0 0
0 0 0 0 0 0 0 0 0 0 0 0 0 0 0 0 0 0 0 0 0 0 0 0 0 0 0 0 0 0 0 0 0 0 0 0 0 0 0 0 0 0 0
0 0 0 0 0 0 0 0 0 0 0 0 0 0 0 0 0 0 0 0 0 0 0 0 0 0 0 0 0 0 0 0 0 0 0 0 0 0 0 0 0 0 0
0 0 0 0 0 0 0 0 0 0 0 0 0 0 0 0 0 0 0 0 0 0 0 0 0 0 0 0 0 0 0 0 0 0 0 0 0 0 0 0 0 0 0
0 0 0 0 0 0 0 0 0 0 0 0 0 0 0 0 0 0 0 0 0 0 0 0 0 0 0 0 0 0 0 0 0 0 0 0 0 0 0 0 0 0 0
0 0 0 0 0 0 0 0 0 0 0 0 0 0 0 0 0 0 0 0 0 0 0 0 0 0 0 0 0 0 0 0 0 0 0 0 0 0 0 0 0 0 0
0 0 0 0 0 0 0 0 0 0 0 0 0 0 0 0 0 0 0 0 0 0 0 0 0 0 0 0 0 0 0 0 0 0 0 0 0 0 0 0 0 0 0
0 0 0 0 0 0 0 0 0 0 0 0 0 0 0 0 0 0 0 0 0 0 0 0 0 0 0 0 0 0 0 0 0 0 0 0 0 0 0 0 0 0 0
Wind_Speed
2 2 2 2 2 2 2 2 2 2 2 2 2 2 2 2 2 2 2 2 3 3 3 3 4 3 3 3 3 3 3 4 7 6 4 4 5 6 6 5 6 6 7
2 2 2 2 2 2 2 2 2 2 2 2 2 2 2 2 2 3 3 3 3 4 4 4 4 3 4 3 3 4 4 4 6 9 6 4 5 5 6 6 7 7 6
2 2 2 2 2 2 3 2 2 2 2 2 2 2 2 3 3 3 4 4 4 4 4 5 5 4 5 4 4 4 4 4 5 6 7 5 4 4 6 6 7 6 7
1 2 2 3 3 3 2 2 2 2 2 2 2 3 3 3 3 3 3 4 4 4 5 5 5 5 6 5 5 5 4 5 5 6 7 6 5 5 5 6 7 5 6
2 2 4 3 2 1 2 1 1 1 2 2 2 3 3 3 3 3 4 4 4 4 4 4 5 5 7 6 5 4 4 5 5 6 6 6 6 5 5 5 7 7 6
3 3 3 2 2 2 2 2 1 2 2 2 2 3 3 3 5 6 5 4 5 5 5 5 5 5 6 9 9 9 7 6 6 6 6 7 8 7 6 7 7 8 8
3 3 2 2 2 3 2 2 2 3 2 3 3 3 4 5 7 7 7 5 5 5 5 5 5 5 5 5 7 9 9 10 10 8 8 8 8 7 8 8 8 8 9
3 3 3 3 3 3 2 3 3 3 3 3 3 3 4 5 7 8 7 5 4 5 5 5 6 6 5 6 5 6 6 7 8 7 7 8 7 7 7 8 9 9 8
4 4 4 3 3 3 3 4 3 2 3 3 3 3 4 6 7 8 7 3 4 5 5 5 6 6 9 10 7 7 7 6 8 11 12 11 12 12 10 6 6 7 8
5 5 4 3 4 4 4 4 3 3 3 3 4 3 4 5 7 8 7 3 4 5 5 5 6 7 10 10 7 6 8 7 6 7 8 9 8 9 10 6 6 6 7
4 3 3 4 4 4 3 2 2 3 3 3 4 4 4 5 7 9 8 4 4 5 5 5 5 10 12 11 9 6 8 8 5 5 5 5 5 5 5 5 5 5 6
2 3 4 3 3 2 3 3 2 3 3 4 4 4 4 4 5 8 9 8 7 5 5 5 5 11 11 11 8 9 10 8 3 3 4 4 5 5 5 5 6 6 6
2 3 3 3 3 2 3 3 3 3 3 3 3 4 4 3 5 9 9 10 10 6 5 8 9 11 10 8 9 10 6 3 3 3 4 5 4 5 5 5 5 6 6
3 4 3 3 3 2 2 3 3 3 4 4 4 4 4 4 4 4 4 5 7 6 5 6 8 9 8 6 5 5 3 3 3 4 5 5 4 4 4 4 5 5 6
4 3 3 3 3 3 3 4 4 4 5 5 4 4 4 5 6 8 5 4 3 3 3 2 2 3 3 3 3 3 3 3 3 3 4 4 4 4 4 4 4 5 5
3 3 3 3 3 3 3 3 6 7 8 9 9 7 6 8 10 10 10 9 7 6 3 2 3 3 4 4 4 3 3 3 3 4 4 4 5 5 5 4 4 5 5
5 4 3 3 3 3 3 3 4 5 7 9 9 10 9 10 10 10 9 8 6 4 2 2 3 3 3 3 3 3 4 4 3 4 4 4 5 5 5 5 5 5 5
5 4 4 4 4 4 4 4 3 4 4 5 6 9 9 9 9 8 7 4 3 2 2 3 4 4 4 4 4 4 4 4 3 4 4 4 4 5 5 5 5 5 6
4 4 4 3 3 4 4 3 3 4 4 4 4 5 6 8 8 7 4 2 3 3 3 3 4 4 4 4 4 4 4 4 4 4 4 5 4 4 5 5 5 6 6
4 5 4 3 3 3 3 3 4 4 4 4 5 4 3 2 3 3 3 3 3 4 4 4 4 4 4 4 4 4 4 4 5 5 5 4 4 4 5 6 5 5 5
3 4 4 3 4 4 4 4 4 4 5 5 5 6 6 3 4 4 4 4 4 4 4 4 4 4 4 4 4 4 5 5 5 5 4 4 4 4 4 5 5 5 5
3 3 4 4 4 4 4 4 4 5 5 5 5 5 7 4 4 4 4 4 4 4 4 4 4 4 4 4 4 5 5 5 5 4 4 4 4 4 4 4 4 4 4
3 4 4 4 4 4 4 4 4 5 5 5 5 4 4 4 5 5 5 5 4 4 4 4 4 5 4 4 4 5 6 6 5 4 4 4 4 4 4 4 5 5 5
3 4 4 4 4 4 4 5 5 5 5 5 5 5 5 5 5 6 5 4 4 4 4 4 5 7 8 6 5 5 5 6 5 4 6 5 5 4 4 4 5 5 5
3 4 4 4 4 5 5 5 5 5 5 5 5 5 5 5 5 5 4 4 5 5 6 5 5 6 7 8 7 6 8 8 6 5 5 4 5 5 5 5 5 5 5
3 4 4 4 4 4 5 5 5 6 6 5 5 5 5 5 5 5 5 4 5 5 6 5 6 7 8 7 8 9 9 9 8 7 5 4 5 5 5 4 5 5 5
Wind_Direction
225 214 220 226 221 215 225 240 242 246 235 231 238 241 249 255 254 249 257 267 271 280 281 276 279 282 279 281 280 276 272 268 273 286 286 297 297 303 310 310 307 305 303
232 211 217 226 215 217 238 247 243 248 250 242 241 248 257 263 256 252 257 261 258 268 275 275 276 277 273 276 276 276 273 270 274 288 297 298 293 300 303 302 305 303 298
220 205 223 231 224 230 241 249 245 246 260 267 252 254 263 266 262 257 251 256 255 260 264 265 271 273 274 272 270 270 271 275 272 281 292 296 294 301 303 298 294 290 296
209 205 231 242 239 242 248 248 249 248 256 261 263 261 263 266 265 262 262 263 262 264 267 267 269 267 268 269 268 270 276 280 279 279 286 293 295 297 295 301 303 298 298
209 220 239 247 247 246 251 252 259 262 260 263 269 271 271 267 266 268 268 271 271 272 273 272 272 267 269 271 274 276 274 274 278 280 283 291 295 303 300 301 299 303 294
217 234 247 247 244 245 249 250 249 256 262 264 265 269 275 274 283 283 283 277 277 275 277 279 276 268 270 277 280 282 281 278 278 279 282 285 291 295 297 296 300 305 302
231 242 242 235 239 245 246 242 244 250 255 256 261 264 270 276 283 287 286 284 280 278 280 284 285 287 276 278 284 285 285 284 280 278 281 283 291 296 297 295 293 293 291
238 245 242 232 238 244 235 239 248 247 247 252 260 261 268 274 280 284 291 285 277 277 278 280 282 286 284 284 284 282 283 284 285 283 280 284 289 292 287 287 290 290 288
244 246 241 231 234 236 237 243 245 244 249 251 258 262 265 275 278 282 291 291 283 282 280 279 278 280 286 288 286 285 287 288 293 291 290 291 296 302 305 303 300 297 295
249 249 241 226 225 231 237 243 249 243 248 256 264 266 268 277 282 283 287 280 281 285 288 282 275 278 286 289 282 280 281 286 293 297 297 298 300 301 303 299 295 292 296
256 251 238 229 229 232 237 241 245 247 255 257 266 272 272 276 284 285 285 282 277 283 284 286 284 287 288 288 287 281 282 293 294 293 294 294 296 298 300 298 294 287 287
246 242 242 241 237 230 231 244 241 241 251 260 269 278 273 276 281 284 284 282 285 279 279 284 289 296 297 296 295 295 298 299 296 293 291 292 295 297 303 305 300 293 285
241 244 248 247 240 234 227 233 236 233 242 257 262 271 279 281 282 284 285 284 284 283 282 287 294 298 299 300 299 300 301 293 285 282 284 286 291 295 300 300 301 295 288
239 246 243 239 246 241 236 232 233 235 241 249 257 266 276 281 279 282 284 285 285 283 288 294 296 298 299 305 308 301 293 284 281 277 281 288 294 295 295 301 300 303 299
238 242 241 237 236 242 242 240 241 241 239 244 247 251 263 271 272 282 288 280 280 279 300 296 293 300 298 301 299 296 295 294 286 285 286 290 292 293 295 301 297 298 290
232 236 233 233 234 236 249 268 258 257 264 261 262 265 267 274 289 287 285 287 287 294 298 283 282 282 280 284 288 291 289 287 286 286 282 281 285 288 292 294 292 290 289
225 232 231 228 228 231 236 245 273 281 270 269 269 271 273 282 286 287 288 294 295 297 263 266 271 275 279 282 281 280 280 285 286 281 278 278 281 283 286 289 289 289 288
226 227 225 229 229 231 234 239 245 258 277 282 281 279 282 284 286 288 297 304 294 292 259 262 268 272 272 272 272 274 277 281 278 276 275 272 271 274 278 281 283 282 287
225 227 224 228 230 232 235 237 241 246 257 272 289 292 291 289 289 290 298 263 260 266 264 262 262 264 268 268 268 268 268 268 269 269 269 270 269 267 270 273 277 281 283
230 232 225 224 230 232 232 234 240 244 252 259 264 271 283 283 278 284 276 257 254 259 260 262 264 263 263 264 265 265 268 268 267 264 266 267 266 263 266 269 272 275 275
229 231 222 223 227 230 233 235 238 242 248 256 261 264 270 260 259 263 263 259 255 256 255 256 258 258 256 258 259 260 262 266 265 264 264 264 263 264 266 269 271 272 275
223 225 223 227 231 234 239 241 240 244 249 256 267 274 273 263 257 260 261 261 258 253 249 248 253 252 249 248 251 254 258 263 265 265 265 264 261 261 264 267 270 273 275
226 229 233 235 233 234 239 240 241 244 249 253 258 263 262 258 259 259 260 262 264 264 258 249 253 259 257 252 247 244 249 255 256 251 253 259 258 255 256 261 266 270 272
230 232 235 238 237 236 238 243 244 245 248 252 255 256 256 257 259 262 262 263 265 266 262 255 252 256 259 260 257 253 253 257 248 239 235 241 248 251 251 254 256 259 264
227 233 238 239 239 241 243 245 245 246 248 249 251 253 256 257 259 261 263 264 264 266 268 266 260 257 258 260 260 262 265 266 254 239 229 228 236 239 243 248 253 258 263
235 240 245 246 245 245 246 249 250 249 250 251 250 250 251 253 255 257 258 259 263 265 266 265 263 265 267 263 261 265 265 263 251 238 224 220 225 235 236 242 249 253 259